Location: Wapato
(46.4478°N, 120.4212°W)
Time: 10:16:59
(UTC+00:00)

Vanguard 1 - All Passes

Search period start: 15 May 2026 00:00
Search period end: 25 May 2026 00:00
Orbit: 654 x 3817 km, 34.2° (Epoch: 14 May)

Date Brightness Start Highest point End Pass type
(mag) Time Alt. Az. Time Alt. Az. Time Alt. Az.
15 May - 02:12:14 10° WSW 02:22:03 49° S 02:39:20 10° ESE daylight
15 May - 04:31:58 10° W 04:44:44 44° SSW 05:04:22 10° SE visible
15 May - 06:54:49 10° W 07:07:57 25° SW 07:24:06 10° S visible
15 May - 22:00:26 10° SE 22:01:53 11° SE 22:03:26 10° ESE daylight
16 May - 00:13:09 10° SW 00:20:21 36° SSE 00:32:31 10° E daylight
16 May - 02:31:16 10° WSW 02:41:18 49° S 02:58:46 10° ESE daylight
16 May - 04:51:22 10° W 05:04:03 39° SSW 05:22:58 10° SE visible
16 May - 07:15:39 10° WSW 07:27:02 19° SW 07:40:28 10° S visible
16 May - 22:16:35 10° S 22:20:24 15° SE 22:25:18 10° ESE daylight
17 May - 00:31:53 10° SW 00:39:19 40° SSE 00:52:10 10° E daylight
17 May - 02:50:23 10° WSW 03:00:34 47° S 03:18:04 10° ESE daylight
17 May - 05:10:56 10° W 05:23:20 34° SSW 05:41:12 10° SSE visible
17 May - 07:37:53 10° WSW 07:46:04 14° SW 07:55:13 10° SSW visible
17 May - 22:34:18 10° S 22:39:01 20° SE 22:45:41 10° E daylight
18 May - 00:50:44 10° SW 00:58:22 42° SSE 01:11:46 10° ESE daylight
18 May - 03:09:34 10° WSW 03:19:51 44° S 03:37:10 10° SE daylight
18 May - 05:30:45 10° W 05:42:34 28° SSW 05:58:58 10° SSE visible
18 May - 22:52:30 10° SSW 22:57:45 25° SSE 23:05:38 10° E daylight
19 May - 01:09:41 10° WSW 01:17:29 44° S 01:31:16 10° ESE daylight
19 May - 03:28:50 10° WSW 03:39:09 40° SSW 03:56:03 10° SE daylight
19 May - 05:50:57 10° WSW 06:01:48 23° SSW 06:16:07 10° S visible
19 May - 23:10:59 10° SW 23:16:34 29° SSE 23:25:22 10° E daylight
20 May - 01:28:41 10° WSW 01:36:39 43° S 01:50:39 10° ESE daylight
20 May - 03:48:14 10° WSW 03:58:27 35° SSW 04:14:38 10° SE visible
20 May - 06:11:53 10° WSW 06:21:00 17° SW 06:32:19 10° S visible
20 May - 21:16:18 10° SE 21:17:00 10° SE 21:17:41 10° SE daylight
20 May - 23:29:40 10° SW 23:35:30 33° SSE 23:44:58 10° ESE daylight
21 May - 01:47:47 10° WSW 01:55:52 41° S 02:09:55 10° ESE daylight
21 May - 04:07:47 10° WSW 04:17:44 30° SSW 04:32:50 10° SSE visible
21 May - 06:34:43 10° WSW 06:40:11 12° SW 06:46:19 10° SSW visible
21 May - 21:32:38 10° S 21:35:39 14° SE 21:39:21 10° ESE daylight
21 May - 23:48:29 10° SW 23:54:30 36° SSE 00:04:29 10° ESE daylight
22 May - 02:06:57 10° WSW 02:15:06 38° S 02:28:59 10° SE daylight
22 May - 04:27:38 10° WSW 04:37:02 24° SSW 04:50:33 10° SSE visible
22 May - 21:50:35 10° SSW 21:54:24 19° SSE 21:59:27 10° ESE daylight
23 May - 00:07:25 10° WSW 00:13:34 37° S 00:23:54 10° ESE daylight
23 May - 02:26:13 10° WSW 02:34:21 34° SSW 02:47:50 10° SE daylight
23 May - 04:47:56 10° WSW 04:56:18 19° SSW 05:07:34 10° S visible
23 May - 22:08:58 10° SSW 22:13:14 23° SSE 22:19:12 10° ESE daylight
24 May - 00:26:25 10° WSW 00:32:41 37° S 00:43:13 10° ESE daylight
24 May - 02:45:37 10° WSW 02:53:37 30° SSW 03:06:21 10° SE daylight
24 May - 05:09:16 10° WSW 05:15:35 14° SSW 05:23:19 10° S visible
24 May - 22:27:37 10° SW 22:32:09 26° SSE 22:38:44 10° ESE daylight
